This demonstration page uses our WeatherBlox Daily Observations layout. Learn more.

Left ArrowRight Arrow

39.51506, -84.39828

Hourly Observations for December 28, 2015

Temp ( °F °C ) Dew Point ( °F °C ) Humidity (%) Winds ( mph kmh ) Pressure ( in mb ) Visibility ( mi km ) Precip ( " mm )
12:15 am 00:15 Cloudy 40 4.7 35 1.9 82 82 NE 15 24 30.27 1025 10 16.0934 N/A
12:35 am 00:35 Cloudy 40 4.7 36 2 83 83 NE 10 17 30.27 1025 10 16.0934 N/A
12:55 am 00:55 Cloudy 40 4.7 36 2 83 83 ENE 14 22 30.27 1025 10 16.0934 N/A
1:15 am 01:15 Cloudy 40 4.7 35 1.7 81 81 NE 16 26 30.27 1025 10 16.0934 N/A
1:35 am 01:35 Cloudy 40 4.7 35 1.5 80 80 ENE 15 24 30.27 1025 10 16.0934 N/A
1:55 am 01:55 Cloudy 40 4.7 35 1.6 81 81 ENE 15 24 30.27 1025 10 16.0934 N/A
2:15 am 02:15 Cloudy 40 4.7 35 1.7 81 81 ENE 13 20 30.27 1025 10 16.0934 N/A
2:35 am 02:35 Cloudy 40 4.7 34 1.3 79 79 ENE 13 20 30.27 1025 10 16.0934 N/A
2:55 am 02:55 Cloudy 40 4.7 35 1.5 80 80 ENE 17 28 30.24 1024 10 16.0934 N/A
3:15 am 03:15 Cloudy 40 4.7 34 1.2 78 78 ENE 16 26 30.24 1024 10 16.0934 N/A
3:35 am 03:35 Cloudy 40 4.7 34 1.2 78 78 ENE 14 22 30.24 1024 10 16.0934 N/A
3:55 am 03:55 Cloudy 40 4.7 34 1.2 78 78 ENE 15 24 30.24 1024 10 16.0934 N/A
4:15 am 04:15 Cloudy 40 4.7 34 1.2 78 78 ENE 13 20 30.24 1024 10 16.0934 N/A
4:35 am 04:35 Cloudy 40 4.7 34 1 77 77 ENE 20 31 30.24 1024 10 16.0934 N/A
4:55 am 04:55 Cloudy 40 4.7 34 0.9 77 77 ENE 13 20 30.24 1024 10 16.0934 N/A
5:15 am 05:15 Windy with Snow Likely 40 4.5 33 0.8 77 77 ENE 21 33 30.21 1023 7 11.26538 N/A
5:55 am 05:55 Cloudy 39 4 34 1.2 82 82 ENE 14 22 30.21 1023 10 16.0934 N/A
6:15 am 06:15 Cloudy with Light Snow 39 4 34 1.3 83 83 ENE 18 30 30.21 1023 7 11.26538 N/A
6:35 am 06:35 Cloudy 39 4 35 1.5 84 84 ENE 16 26 30.21 1023 10 16.0934 N/A
6:55 am 06:55 Cloudy 39 4 35 1.5 84 84 ENE 18 30 30.18 1022 10 16.0934 N/A
7:15 am 07:15 Cloudy with Light Snow 39 4 35 1.5 84 84 ENE 18 30 30.18 1022 7 11.26538 N/A
7:35 am 07:35 Cloudy 39 4 35 1.5 84 84 ENE 16 26 30.18 1022 10 16.0934 N/A
7:55 am 07:55 Cloudy with Light Snow 39 4 35 1.5 84 84 ENE 17 28 30.18 1022 10 16.0934 N/A
8:15 am 08:15 Windy with Snow Likely 39 4 35 1.5 84 84 ENE 21 33 30.18 1022 4 6.43736 N/A
8:35 am 08:35 Windy with Snow Likely 39 4 35 1.7 85 85 ENE 21 33 30.18 1022 5 8.0467 N/A
8:55 am 08:55 Cloudy with Mist and Fog 39 4 35 1.7 85 85 ENE 16 26 30.15 1021 5 8.0467 N/A
9:15 am 09:15 Cloudy 39 4 35 1.6 85 85 ENE 17 28 30.15 1021 7 11.26538 N/A
9:35 am 09:35 Cloudy with Mist and Fog 39 4 35 1.5 84 84 ENE 16 26 30.15 1021 5 8.0467 N/A
9:55 am 09:55 Cloudy 39 4 35 1.5 84 84 ENE 16 26 30.15 1021 10 16.0934 N/A
10:15 am 10:15 Cloudy 39 4 35 1.5 84 84 ENE 17 28 30.12 1020 10 16.0934 N/A
10:35 am 10:35 Cloudy with Light Rain 39 4 35 1.4 83 83 ENE 15 24 30.12 1020 5 8.0467 N/A
10:55 am 10:55 Cloudy with Light Snow 39 4 34 1.3 83 83 E 17 28 30.12 1020 2.5 4.02335 N/A
11:15 am 11:15 Cloudy with Light Snow 39 4 35 1.6 85 85 E 13 20 30.12 1020 3 4.82802 N/A
11:35 am 11:35 Cloudy with Light Snow 39 3.7 35 1.6 86 86 E 18 30 30.09 1019 2 3.21868 N/A
11:55 am 11:55 Cloudy with Light Snow 38 3.6 35 1.5 86 86 ENE 16 26 30.03 1017 1.75 2.816345 N/A
12:15 pm 12:15 Cloudy 39 4 35 1.8 86 86 ENE 18 30 30 1016 10 16.0934 N/A
12:35 pm 12:35 Cloudy 39 4 35 1.7 85 85 ENE 18 30 29.97 1015 10 16.0934 N/A
12:55 pm 12:55 Cloudy 39 4 35 1.6 85 85 ENE 17 28 29.94 1014 10 16.0934 N/A
1:15 pm 13:15 Windy with Snow Likely 39 4 35 1.7 85 85 ENE 20 31 29.91 1013 4 6.43736 N/A
1:35 pm 13:35 Cloudy with Light Snow 39 4 35 1.7 85 85 E 15 24 29.91 1013 1.75 2.816345 N/A
1:55 pm 13:55 Cloudy with Light Snow 39 4 36 2 87 87 E 9 15 29.91 1013 1.5 2.41401 N/A
2:15 pm 14:15 Cloudy with Light Snow 39 4 36 2.2 88 88 ENE 12 19 29.88 1012 2 3.21868 N/A
2:35 pm 14:35 Cloudy 39 4 36 2 87 87 ENE 12 19 29.85 1011 10 16.0934 N/A
2:55 pm 14:55 Cloudy 39 4 36 2 87 87 E 12 19 29.85 1011 10 16.0934 N/A
3:15 pm 15:15 Cloudy 39 4 35 1.9 86 86 ENE 14 22 29.83 1010 10 16.0934 N/A
3:35 pm 15:35 Cloudy 40 4.4 36 2.2 86 86 ENE 12 19 29.83 1010 10 16.0934 N/A
3:55 pm 15:55 Cloudy with Light Snow 40 4.5 36 2.4 86 86 ENE 13 20 29.8 1009 7 11.26538 N/A
4:15 pm 16:15 Cloudy with Light Snow 40 4.7 37 2.7 87 87 E 10 17 29.8 1009 7 11.26538 N/A
4:35 pm 16:35 Cloudy with Light Snow 40 4.7 37 2.7 87 87 ENE 10 17 29.8 1009 3 4.82802 N/A
4:55 pm 16:55 Cloudy with Light Snow 40 4.7 37 3 89 89 E 13 20 29.77 1008 4 6.43736 N/A
5:15 pm 17:15 Cloudy with Light Snow 42 5.3 38 3.3 87 87 E 12 19 29.74 1007 4 6.43736 N/A
5:35 pm 17:35 Cloudy with Light Snow 42 5.5 38 3.5 87 87 E 12 19 29.74 1007 3 4.82802 N/A
5:55 pm 17:55 Cloudy with Light Snow 42 5.7 39 3.9 88 88 E 7 11 29.71 1006 3 4.82802 N/A
6:15 pm 18:15 Cloudy with Light Snow 43 6.2 40 4.3 88 88 E 9 15 29.71 1006 5 8.0467 N/A
6:35 pm 18:35 Cloudy 47 8.1 43 6.3 89 89 ESE 14 22 29.68 1005 10 16.0934 N/A
6:55 pm 18:55 Cloudy 49 9.6 46 7.7 88 88 ESE 10 17 29.68 1005 10 16.0934 N/A
7:15 pm 19:15 Cloudy 49 9.6 46 7.7 88 88 ESE 9 15 29.65 1004 10 16.0934 N/A
7:35 pm 19:35 Cloudy 50 9.8 46 7.9 88 88 SE 8 13 29.65 1004 10 16.0934 N/A
7:55 pm 19:55 Cloudy 55 12.5 51 10.3 87 87 SE 12 19 29.59 1002 10 16.0934 N/A
8:15 pm 20:15 Cloudy 55 12.5 50 10.2 86 86 SSE 10 17 29.59 1002 10 16.0934 N/A
8:35 pm 20:35 Cloudy 55 12.5 50 10.1 85 85 SSE 10 17 29.59 1002 10 16.0934 N/A
8:55 pm 20:55 Cloudy 55 12.5 50 10.1 85 85 SSE 8 13 29.56 1001 10 16.0934 N/A
9:15 pm 21:15 Cloudy 55 12.5 50 10.1 85 85 SSE 10 17 29.56 1001 10 16.0934 N/A
9:35 pm 21:35 Cloudy with Rain 57 13.8 53 11.4 86 86 W 15 24 29.59 1002 10 16.0934 N/A
9:55 pm 21:55 Cloudy with Light Rain 57 13.8 53 11.8 88 88 SW 12 19 29.62 1003 7 11.26538 N/A
10:15 pm 22:15 Cloudy with Light Rain 57 13.7 53 11.9 89 89 SW 5 7 29.62 1003 5 8.0467 N/A
10:35 pm 22:35 Cloudy with Drizzle 56 13.1 53 11.5 90 90 SSW 5 7 29.62 1003 4 6.43736 N/A
10:55 pm 22:55 Cloudy with Drizzle 55 12.5 52 11 91 91 SSW 3 6 29.62 1003 5 8.0467 N/A
11:15 pm 23:15 Cloudy with Rain 55 12.5 52 11 91 91 SSW 3 6 29.65 1004 3 4.82802 N/A
11:35 pm 23:35 Cloudy 55 13 53 11.6 91 91 WSW 15 24 29.65 1004 10 16.0934 N/A
11:55 pm 23:55 Cloudy 57 13.8 52 11 83 83 WSW 14 22 29.68 1005 10 16.0934 N/A

Powered by AerisWeather